This demonstration page uses our WeatherBlox Daily Observations layout. Learn more.

Left ArrowRight Arrow

39.08367, -84.50855

Hourly Observations for December 3, 2015

Temp ( °F °C ) Dew Point ( °F °C ) Humidity (%) Winds ( mph kmh ) Pressure ( in mb ) Visibility ( mi km ) Precip ( " mm )
12:43 am 00:43 Cloudy with Light Snow 34 1.1 31 -0.6 89 89 W 16 26 30.06 1018 3 4 0.00 0.03
12:47 am 00:47 Cloudy with Light Snow 34 1 30 -1 87 87 W 14 22 30.09 1019 3 5 0.00 0.03
12:53 am 00:53 Cloudy with Light Snow 33 0.6 31 -0.6 92 92 W 12 19 30.09 1019 7 11 0.00 0.03
1:33 am 01:33 Cloudy 34 1.1 31 -0.6 89 89 W 7 11 30.09 1019 10 16 0.00 0.03
1:53 am 01:53 Cloudy 34 1.1 32 0 92 92 W 9 15 30.10 1019 10 16 0.00 0.03
2:12 am 02:12 Cloudy 34 1 30 -1 87 87 W 8 13 30.09 1019 10 16 0.00 0.00
2:36 am 02:36 Cloudy 34 1 30 -1 87 87 W 6 9 30.12 1020 10 16 0.00 0.00
2:45 am 02:45 Cloudy 34 1.1 31 -0.6 89 89 W 7 11 30.12 1020 10 16 0.00 0.00
2:53 am 02:53 Cloudy 35 1.7 31 -0.6 85 85 W 7 11 30.13 1020 10 16 0.00 0.00
3:46 am 03:46 Mostly Cloudy 34 1 28 -2 81 81 W 9 15 30.18 1022 10 16 0.00 0.00
3:53 am 03:53 Mostly Cloudy 34 1.1 28 -2.2 79 79 W 10 17 30.16 1021 10 16 0.00 0.00
4:26 am 04:26 Mostly Cloudy 34 1 28 -2 81 81 WNW 5 7 30.21 1023 10 16 0.00 0.00
4:53 am 04:53 Cloudy 34 1.1 27 -2.8 76 76 W 14 22 30.19 1022 10 16 0.00 0.00
5:53 am 05:53 Cloudy 33 0.6 27 -2.8 78 78 W 12 19 30.22 1023 10 16 0.00 0.00
6:24 am 06:24 Partly Cloudy 32 0 27 -2.8 82 82 W 12 19 30.24 1024 10 16 0.00 0.00
6:53 am 06:53 Mostly Clear 32 0 27 -2.8 82 82 W 9 15 30.24 1024 10 16 0.00 0.00
7:53 am 07:53 Partly Cloudy 31 -0.6 27 -2.8 85 85 W 9 15 30.28 1025 10 16 0.00 0.00
8:53 am 08:53 Cloudy 33 0.6 27 -2.8 78 78 W 8 13 30.30 1026 10 16 0.00 0.00
9:53 am 09:53 Cloudy 34 1.1 28 -2.2 79 79 W 8 13 30.34 1027 10 16 0.00 0.00
10:53 am 10:53 Cloudy 36 2.2 29 -1.7 76 76 W 6 9 30.35 1028 10 16 0.00 0.00
11:53 am 11:53 Cloudy 38 3.3 31 -0.6 76 76 VRB 3 6 30.36 1028 10 16 0.00 0.00
12:53 pm 12:53 Cloudy 39 3.9 32 0 76 76 W 5 7 30.35 1028 10 16 0.00 0.00
1:53 pm 13:53 Cloudy 41 5 32 0 70 70 WNW 6 9 30.36 1028 10 16 0.00 0.00
2:53 pm 14:53 Cloudy 42 5.6 31 -0.6 65 65 undefined N/A 30.37 1028 10 16 0.00 0.00
3:20 pm 15:20 Cloudy 43 6 30 -1 61 61 undefined N/A 30.36 1028 10 16 0.00 0.00
3:53 pm 15:53 Cloudy 41 5 31 -0.6 67 67 W 6 9 30.39 1029 10 16 0.00 0.00
4:53 pm 16:53 Cloudy 41 5 31 -0.6 67 67 W 6 9 30.41 1030 10 16 0.00 0.00
5:53 pm 17:53 Mostly Cloudy 37 2.8 30 -1.1 76 76 WSW 7 11 30.42 1030 10 16 0.00 0.00
6:53 pm 18:53 Mostly Clear 38 3.3 30 -1.1 73 73 Calm 30.44 1031 10 16 0.00 0.00
7:53 pm 19:53 Clear 31 -0.6 30 -1.1 96 96 Calm 30.45 1031 10 16 0.00 0.00
8:53 pm 20:53 Clear 30 -1.1 28 -2.2 92 92 Calm 30.47 1032 9 14 0.00 0.00
9:53 pm 21:53 Clear 30 -1.1 29 -1.7 96 96 Calm 30.48 1032 10 16 0.00 0.00
10:28 pm 22:28 Clear with Mist and Fog 29 -1.7 28 -2.2 96 96 Calm 30.50 1033 2 3 0.00 0.00
10:53 pm 22:53 Clear with Mist and Fog 29 -1.7 28 -2.2 96 96 Calm 30.49 1033 3 4 0.00 0.00
11:00 pm 23:00 Clear with Mist and Fog 28 -2 27 -3 93 93 Calm 30.50 1033 3 5 0.00 0.00
11:22 pm 23:22 Clear with Mist and Fog 27 -3 27 -3 100 100 Calm 30.53 1034 1 1 0.00 0.00
11:42 pm 23:42 Clear with Mist and Fog 28 -2 28 -2 100 100 Calm 30.53 1034 2 2 0.00 0.00
11:53 pm 23:53 Clear with Mist and Fog 28 -2.2 28 -2.2 100 100 Calm 30.50 1033 1 2 0.00 0.00

Powered by AerisWeather